User: anonymous   Login
Location: Newark
(13.8625°N, 100.5144°E)
Time: 12:57:00
(UTC+00:00)
Language:

Envisat - Orbit

View from above orbital plane
View from above orbital plane
View from above satellite
View from above satellite

Ground track
Ground track

The orbit data is extracted from the following two-line orbital elements,

1 27386U 02009A   20154.04649558  .00000013  00000-0  17846-4 0  9994
2 27386  98.1360 161.9066 0001256  89.9834 333.4644 14.37982286956400
Epoch (UTC): 02 June 2020 01:06:57
Eccentricity: 0.0001256
inclination: 98.1360°
perigee height: 764 km
apogee height: 766 km
right ascension of ascending node: 161.9066°
argument of perigee: 89.9834°
revolutions per day: 14.37982286
mean anomaly at epoch: 333.4644°
orbit number at epoch: 95640

The dashed part of the orbit path shows where the satellite is in the earth's shadow,  

DLR